Regional Weather Roundup
Issued by NWS

Home | Current Version | Previous Version | Graphics & Text | Print | Product List | Glossary On
Versions: 1 2 3 4 5 6 7 8 9 10 11 12 13 14 15 16 17 18 19 20 21 22 23 24 25 26 27 28 29 30 31 32 33 34 35 36 37 38 39 40 41 42 43 44 45 46 47 48 49 50
000
ASUS43 KMKX 261621
RWRWI

WISCONSIN REGIONAL WEATHER ROUNDUP
NATIONAL WEATHER SERVICE MILWAUKEE/SULLIVAN WI
1000 AM CST WED NOV 26 2014

NOTE: "FAIR" INDICATES FEW OR NO CLOUDS BELOW 12,000 FEET WITH NO
SIGNIFICANT WEATHER AND/OR OBSTRUCTIONS TO VISIBILITY.

WIZ001-002-006>008-014>016-023>028-261700-
NORTHWEST WISCONSIN

CITY           SKY/WX    TMP DP  RH WIND       PRES   REMARKS
SUPERIOR ARPT  CLOUDY    22  15  73 NW6       30.21R WCI  15
ASHLAND        LGT SNOW  22  19  89 W3        30.19S FOG
HAYWARD        CLOUDY    21  16  81 N3        30.15R
SIREN          PTSUNNY   23  17  79 NE7       30.18R WCI  14
CUMBERLAND     LGT SNOW  23  18  80 CALM      30.15R
RICE LAKE      CLOUDY    23  17  79 CALM      30.17R
CHETEK         CLOUDY    22  17  81 CALM      30.16R
LADYSMITH      CLOUDY    23  18  80 CALM      30.16R
EAU CLAIRE     CLOUDY    23  16  74 NE3       30.15R
MENOMONIE      CLOUDY    24  17  76 N5        30.16R WCI  18
NEW RICHMOND   LGT SNOW  23  19  84 NE5       30.16R WCI  17
OSCEOLA        LGT SNOW  24  23  99 N3        30.20R
$$

WIZ003>005-009-010-017-018-261700-
NORTH CENTRAL WISCONSIN

CITY           SKY/WX    TMP DP  RH WIND       PRES   REMARKS
MANITOWISH WTR LGT SNOW  18  17  96 CALM      30.11R
ARBOR VITAE    LGT SNOW  19  16  86 CALM      30.11R
WOODRUFF       LGT SNOW  19  16  86 CALM      30.11R
RHINELANDER    CLOUDY    17  15  92 CALM      30.11R
EAGLE RIVER    CLOUDY    17  14  89 CALM      30.10S
LAND O LAKES   LGT SNOW  17  15  90 CALM      30.11S
PHILLIPS       CLOUDY    20  15  82 CALM      30.11R
TOMAHAWK       CLOUDY    18  15  88 CALM      30.13R
MEDFORD        CLOUDY    20  15  79 CALM      30.11R
MERRILL        CLOUDY    19  16  88 CALM      30.12S
$$

WIZ029-030-035-036-043>047-261700-
CENTRAL WISCONSIN

CITY           SKY/WX    TMP DP  RH WIND       PRES   REMARKS
WAUSAU         CLOUDY    19  17  92 CALM      30.12R
MOSINEE        CLOUDY    18  18 100 SE3       30.14R
MARSHFIELD     CLOUDY    20  14  77 E5        30.12R WCI  13
STEVENS POINT  CLOUDY    16  15  94 SE6       30.14S FOG     WCI   8
WAUPACA        CLOUDY    19  17  89 CALM      30.18S FOG
WAUTOMA        CLOUDY    18  16  92 CALM      30.17S FOG
WISC RAPIDS    CLOUDY    18  12  77 E5        30.15R WCI  11
CAMP DOUGLAS   CLOUDY    18  18 100 E6        30.13S WCI   9
$$

WIZ011>013-019>022-031-037>040-048>050-261700-
NORTHEAST WISCONSIN

CITY           SKY/WX    TMP DP  RH WIND       PRES   REMARKS
ANTIGO         CLOUDY    17  15  95 CALM      30.11R FOG
SHAWANO        CLOUDY    19  17  90 CALM      30.18S
OCONTO         CLOUDY    19  19 100 W3        30.19S
STURGEON BAY   MOSUNNY   23  16  74 CALM      30.18S
GREEN BAY      CLOUDY    19  19 100 CALM      30.19R FOG
MANITOWOC      CLOUDY    22  19  89 N8        30.17S WCI  12
APPLETON       CLOUDY    19  18  93 CALM      30.17R
CLINTONVILLE   CLOUDY    19  18  93 CALM      30.17S FOG
OSHKOSH        CLOUDY    20  18  92 MISG      30.17S FOG
$$

WIZ032>034-041-042-053>061-261700-
SOUTHWEST WISCONSIN

CITY           SKY/WX    TMP DP  RH WIND       PRES   REMARKS
LA CROSSE      CLOUDY    23  16  74 E7        30.14R WCI  15
SPARTA         CLOUDY    22  17  80 CALM      30.15R
VIROQUA        PTSUNNY   19  18  93 E7        30.09R WCI  10
BOSCOBEL       PTSUNNY   20  16  84 NE6       30.14R WCI  12
PRAIRIE DU CHI CLOUDY    22  17  83 E3        30.11S
PLATTEVILLE    CLOUDY    20  19  96 CALM      30.11S
$$

WIZ056-057-062-063-064-067-068-261700-
SOUTH CENTRAL WISCONSIN

CITY           SKY/WX    TMP DP  RH WIND       PRES   REMARKS
REEDSBURG      MOSUNNY   15  13  92 CALM      30.13S
BARABOO/DELLS  MOSUNNY   16  15  93 CALM      30.13R FOG
LONE ROCK      CLOUDY    20  13  74 E7        30.15R WCI  11
MINERAL POINT  LGT SNOW  23  21  93 SE8       30.10R WCI  14
MADISON        CLOUDY    15  13  91 SE5       30.15R FOG     WCI   8
MIDDLETON      CLOUDY    21  18  91 SE5       30.14S WCI  14
WATERTOWN      LGT SNOW  13  11  94 CALM      30.16S
MONROE         CLOUDY    19  19 100 E5        30.12R FOG     WCI  13
JANESVILLE     CLOUDY    21  19  93 E5        30.14R FOG     WCI  15
$$

WIZ051-052-058>065-066-070>072-261700-
SOUTHEAST WISCONSIN

CITY           SKY/WX    TMP DP  RH WIND       PRES   REMARKS
MILWAUKEE      PTSUNNY   24  18  77 NW5       30.15S HAZE    WCI  18
WAUKESHA       MOSUNNY   18  16  93 CALM      30.15S FOG
MILWAUKEE/TIMM SUNNY     21  18  86 CALM      30.16  HAZE
RACINE         PTSUNNY   22  18  85 W6        30.17R FOG     WCI  14
BURLINGTON     PTSUNNY   18  17  96 CALM      30.14S FOG
KENOSHA        PTSUNNY   21  19  92 W5        30.15S FOG     WCI  15
FOND DU LAC    MOSUNNY   21  20  96 CALM      30.16F
SHEBOYGAN      CLOUDY    24  19  81 CALM      30.16S
WEST BEND      CLOUDY    23  19  86 S3        30.16R
JUNEAU         MOSUNNY   17  15  92 SE3       30.16R FOG
$$

LSZ147-162-261700-
LAKE SUPERIOR

STATION/POSITION TIME  TEMP    WIND        PRES    WAVE
                       AIR SEA DIR/SP/G            HT/PER
                 (UTC) (F)     (DEG/KT/KT) (MB)    (FT/S)
DEVILS ISLAND    1600   25     350/ 15/ 16 1023.0R
PORT WING        1500   21     170/  4/  5 1022.0
SAXON HARBOR     1500   21     200/  4/  5 1021.7
$$

LMZ867-665-643>646-261700-
LAKE MICHIGAN

STATION/POSITION TIME  TEMP    WIND        PRES    WAVE
                       AIR SEA DIR/SP/G            HT/PER
                 (UTC) (F)     (DEG/KT/KT) (MB)    (FT/S)
CHAMBERS ISLAND  1500   22     270/  4/  7 1022.0S
N MID LAKE BUOY  1550   28 42  330/  6/  8 1022.5R   1
NORTHPORT PIER   1508   25     300/  4/  8 1021.7S
SISTER BAY       1513             CALM       N/A
ALGOMA LAKESHORE 1343          330/  7/  8   N/A
KEWAUNEE LAKESHO 1600   23     300/  4/  6 1021.1R
SHEBOYGAN LAKESH 1600   24 36  310/  5/  6 1022.9R
PORT WASHINGTON  1500   23     260/  3/  6 1022.4R
MILWAUKEE LAKESH 1600   26     300/  3/  4   N/A
S MID LAKE BUOY  1550   31 42  150/ 10/ 14 1021.8S   1/ 3
KENOSHA   LAKESH 1600   22     270/  7/  8 1021.0S
$$

TC  - TEMPERATURE IN CELSIUS
VSB - VISIBILITY IN STATUTE MILES
WCI - WIND CHILL INDEX
HX  - HEAT INDEX




USA.gov is the U.S. government's official web portal to all federal, state and local government web resources and services.